[[{"header":{"parameterUnit":"m.s-1","parameterCategory":1,"la1":30.2991,"la2":30.254,"lo1":-89.0895,"lo2":-89.0444,"dy":0.0017,"dx":0.0017,"nx":28,"ny":28,"refTime":"2025-07-04T03:00:00:Z","depth":0,"parameterNumber":2,"parameterNumberName":"U-component_of_WINDS"},"data":[0,0,0,0,0,0,0,0,0,0,0,0,0,0,0,0,0,0,0,0,0,0,0,0,0,0,0,0,0,0,0,0,0,0,0,0,0,0,0,0,0,0,0,0,0,0,0,0,0,0,0,0,0,0,0,0,0,0,1.1362,1.1365,0,1.1625,1.1628,1.1631,1.1662,1.1659,1.1657,1.1654,1.1934,1.1943,1.1953,0,0,0,0,0,0,0,0,0,0,0,0,0,1.0897,1.0905,1.1361,1.1365,1.1368,1.1624,1.1628,1.1632,1.1662,1.1659,1.1656,1.1653,1.193,1.1942,1.1954,0,0,0,0,0,0,0,0,0,0,0,0,0,1.1123,1.0908,1.1361,1.1414,1.1421,1.1624,1.1628,1.1633,1.1663,1.1659,1.1655,1.1651,1.1926,1.1941,1.1955,1.2126,0,0,1.2001,1.2007,0,0,0,0,0,0,0,0,1.111,1.114,1.1403,1.1411,1.1419,1.1606,1.1567,1.1798,1.1664,1.1572,1.1654,1.1649,1.1829,1.1851,1.191,1.2139,1.2151,1.2002,1.2011,1.2018,1.2022,0,0,0,0,0,0,0,1.1095,1.1129,1.1466,1.1407,1.1417,1.1429,1.1456,1.1611,1.1719,1.1579,1.1582,1.1612,1.1832,1.1895,1.1916,1.2155,1.2002,1.2015,1.2024,1.203,1.2543,1.2547,0,0,0,0,0,0,1.1068,1.1116,1.1458,1.1474,1.1252,1.144,1.1471,1.155,1.1718,1.1739,1.1615,1.1613,1.1872,1.1899,1.1926,1.214,1.2017,1.2031,1.204,1.2538,1.2544,1.2549,0,0,0,0,0,0,1.1058,1.1098,1.1447,1.1296,1.1341,1.1452,1.1541,1.1558,1.162,1.1745,1.1765,1.1659,1.187,1.1905,1.2076,1.215,1.2038,1.2051,1.2533,1.254,1.2547,1.2567,0,0,0,0,0,0,1.1044,1.1094,1.1157,1.1297,1.1349,1.1589,1.1545,1.1566,1.1645,1.1644,1.1791,1.1812,1.1869,1.2054,1.2091,1.2168,1.2063,1.2527,1.2536,1.2544,1.256,1.2573,1.2585,0,0,0,0,0,1.1027,1.1153,1.116,1.1201,1.143,1.1593,1.1624,1.1684,1.165,1.1717,1.1797,1.1807,1.2135,1.2071,1.2113,1.2196,1.2522,1.2533,1.2544,1.2554,1.2571,1.2585,0,0,0,0,0,0,1.1022,1.1173,1.1182,1.1356,1.1461,1.1598,1.1683,1.1699,1.1819,1.1814,1.1887,1.192,1.2089,1.216,1.2086,1.2372,1.2326,1.2346,1.232,1.2337,1.2349,1.233,1.2075,0,0,0,0,0,1.104,1.1157,1.1284,1.1426,1.1478,1.1572,1.1645,1.1683,1.1797,1.1842,1.1935,1.2048,1.2177,1.226,1.2386,1.257,1.2605,1.2648,1.266,1.267,1.2687,1.2794,1.2815,1.2584,1.2584,1.2584,0,0,1.1081,1.1178,1.1248,1.1427,1.1513,1.1637,1.1609,1.174,1.1834,1.1863,1.203,1.2103,1.2234,1.2413,1.2497,1.2477,1.2758,1.2684,1.269,1.2703,1.2807,1.2829,1.2848,1.2591,1.259,1.2589,0,0,1.1218,1.1302,1.143,1.1517,1.1647,1.1709,1.174,1.1875,1.1924,1.2092,1.2117,1.2232,1.2451,1.2545,1.2621,1.2796,1.2811,1.2835,1.2902,1.3005,1.3023,1.304,1.3106,1.3128,1.2851,1.2851,1.2851,0,1.1253,1.1437,1.1495,1.1626,1.1707,1.1736,1.187,1.1952,1.2118,1.2175,1.2149,1.2427,1.2518,1.2721,1.2764,1.2823,1.2865,1.282,1.3015,1.3033,1.3049,1.3113,1.3137,1.2854,1.2853,1.2853,1.2853,0,1.1475,1.1603,1.1692,1.1848,1.1939,1.207,1.2153,1.2238,1.2268,1.2334,1.2508,1.2617,1.2766,1.2817,1.2849,1.3026,1.301,1.2999,1.2955,1.3072,1.3134,1.3158,1.2857,1.2856,1.2855,1.2855,0,0,1.1616,1.1804,1.1836,1.1909,1.2056,1.2158,1.2293,1.2436,1.2509,1.2623,1.2741,1.2927,1.2919,1.3005,1.3048,1.3138,1.3275,1.3117,1.3121,1.3145,1.3482,1.349,1.3517,1.3285,1.3289,1.3293,1.3472,0,1.1773,1.201,1.2068,1.2273,1.2394,1.2425,1.2543,1.2648,1.2714,1.2829,1.2903,1.3035,1.3012,1.3065,1.3155,1.3238,1.3344,1.3226,1.3399,1.3405,1.3367,1.3549,1.3558,1.3721,1.3496,1.35,1.3503,0,1.1986,1.2103,1.2319,1.2452,1.2505,1.261,1.2748,1.2856,1.2978,1.302,1.3117,1.3152,1.3298,1.3245,1.345,1.3369,1.3444,1.3496,1.3504,1.3524,1.3462,1.3577,1.3774,1.3799,1.354,1.3537,1.3535,0,1.2071,1.2282,1.244,1.2501,1.266,1.2733,1.2804,1.2921,1.3005,1.3127,1.3183,1.3321,1.3397,1.3505,1.3578,1.3532,1.3779,1.3731,1.3822,1.382,1.3874,1.387,1.4088,1.3917,1.3917,1.3916,1.3916,0,1.2241,1.2372,1.248,1.2577,1.2727,1.2795,1.2943,1.3015,1.3119,1.3234,1.327,1.3378,1.3466,1.3588,1.3646,1.3809,1.3843,1.3884,1.3898,1.3882,1.3877,1.3933,1.3925,1.3923,1.3922,1.392,1.3919,0,1.2361,1.2438,1.2612,1.2748,1.2786,1.2891,1.301,1.3108,1.3174,1.3319,1.3358,1.3464,1.3609,1.3691,1.3874,1.3914,1.4096,1.4104,1.4054,1.4061,1.4148,1.414,1.4412,1.4453,1.4253,1.4254,1.4256,0,1.2465,1.2567,1.2714,1.2792,1.2863,1.2988,1.3074,1.3145,1.3233,1.3381,1.3463,1.3609,1.3729,1.396,1.4056,1.4197,1.4211,1.4297,1.4232,1.4214,1.4216,1.421,1.4222,1.4308,1.431,1.4311,1.4313,0,1.2643,1.2676,1.2796,1.293,1.303,1.314,1.325,1.3313,1.3403,1.3501,1.3648,1.3742,1.3928,1.4075,1.4224,1.4301,1.4324,1.4332,1.4361,1.4346,1.4314,1.4336,1.4087,1.4326,1.4324,1.4323,1.4323,1.4322,1.276,1.2854,1.2972,1.3106,1.3195,1.3297,1.3396,1.3475,1.3598,1.3753,1.3789,1.3945,1.4069,1.4271,1.4352,1.4478,1.4463,1.4504,1.4515,1.4525,1.4529,1.4292,1.4505,1.4505,1.4505,1.4504,1.4504,0,1.2942,1.302,1.3142,1.3293,1.34,1.3408,1.3531,1.362,1.3755,1.3867,1.3985,1.4156,1.4299,1.4406,1.4554,1.4634,1.4649,1.4671,1.4667,1.4685,1.4532,1.4494,1.4656,1.4656,1.4656,1.4656,1.4656,1.4656,1.3049,1.3209,1.3257,1.3463,1.3541,1.3691,1.3761,1.3857,1.3947,1.4135,1.4253,1.4321,1.4433,1.4588,1.4721,1.475,1.4804,1.4825,1.4855,1.4711,1.4695,1.4679,1.4644,1.4835,1.4835,1.4998,1.4999,1.5]},{"header":{"parameterUnit":"m.s-1","parameterCategory":1,"la1":30.2991,"la2":30.254,"lo1":-89.0895,"lo2":-89.0444,"dy":0.0017,"dx":0.0017,"nx":28,"ny":28,"refTime":"2025-07-04T03:00:00:Z","depth":0,"parameterNumber":3,"parameterNumberName":"V-component_of_WINDS"},"data":[0,0,0,0,0,0,0,0,0,0,0,0,0,0,0,0,0,0,0,0,0,0,0,0,0,0,0,0,0,0,0,0,0,0,0,0,0,0,0,0,0,0,0,0,0,0,0,0,0,0,0,0,0,0,0,0,0,0,0.3386,0.3388,0,0.3577,0.3579,0.3581,0.3553,0.355,0.3547,0.3544,0.3742,0.375,0.3758,0,0,0,0,0,0,0,0,0,0,0,0,0,0.2994,0.3001,0.3385,0.3388,0.339,0.3577,0.3579,0.3582,0.3554,0.355,0.3546,0.3542,0.3739,0.3749,0.3759,0,0,0,0,0,0,0,0,0,0,0,0,0,0.3173,0.3004,0.3385,0.3399,0.3402,0.3576,0.3579,0.3583,0.3555,0.355,0.3545,0.3541,0.3736,0.3748,0.376,0.3933,0,0,0.3798,0.3803,0,0,0,0,0,0,0,0,0.3162,0.3187,0.3394,0.3398,0.3402,0.3536,0.3514,0.37,0.3556,0.3497,0.3544,0.3538,0.3677,0.3694,0.3741,0.3943,0.3951,0.3799,0.3806,0.3812,0.3815,0,0,0,0,0,0,0,0.315,0.3179,0.3461,0.3397,0.3402,0.3395,0.3415,0.3549,0.3612,0.3502,0.35,0.3523,0.3678,0.3729,0.3745,0.3954,0.3799,0.381,0.3817,0.3822,0.4303,0.4309,0,0,0,0,0,0,0.3134,0.3168,0.3455,0.3467,0.3268,0.3406,0.3428,0.3498,0.361,0.3623,0.3527,0.3521,0.371,0.3731,0.3752,0.3961,0.3812,0.3823,0.383,0.4298,0.4305,0.431,0,0,0,0,0,0,0.3126,0.316,0.3447,0.3317,0.3353,0.3418,0.3496,0.3504,0.3555,0.3629,0.364,0.3567,0.3707,0.3735,0.3888,0.3968,0.3829,0.384,0.4292,0.43,0.4308,0.4381,0,0,0,0,0,0,0.3115,0.3157,0.3225,0.3319,0.336,0.3581,0.3501,0.3512,0.3576,0.357,0.367,0.3682,0.3705,0.3869,0.39,0.3982,0.385,0.4285,0.4296,0.4305,0.4372,0.4391,0.4407,0,0,0,0,0,0.3101,0.3239,0.3228,0.3263,0.3446,0.3586,0.3609,0.3633,0.3583,0.3651,0.3697,0.3679,0.3953,0.3885,0.3919,0.4007,0.428,0.4293,0.4304,0.4364,0.4387,0.4406,0,0,0,0,0,0,0.3154,0.3252,0.3241,0.3414,0.3491,0.3581,0.3667,0.3657,0.3751,0.3742,0.3767,0.379,0.3944,0.399,0.3913,0.4178,0.411,0.4129,0.4143,0.4166,0.4183,0.4169,0.386,0,0,0,0,0,0.3185,0.3291,0.337,0.3515,0.3554,0.3604,0.3665,0.3676,0.3758,0.3791,0.385,0.393,0.4033,0.4102,0.4201,0.4377,0.4397,0.4453,0.447,0.4484,0.4502,0.4595,0.4621,0.435,0.435,0.435,0,0,0.3253,0.3319,0.3384,0.3527,0.3589,0.3696,0.3632,0.3749,0.3829,0.3809,0.3957,0.4002,0.4092,0.4257,0.4332,0.43,0.458,0.45,0.451,0.4521,0.461,0.4636,0.4659,0.4358,0.4357,0.4355,0,0,0.343,0.3491,0.3617,0.3679,0.3772,0.3803,0.3833,0.3923,0.3952,0.41,0.4086,0.418,0.4359,0.4423,0.448,0.4675,0.4661,0.4706,0.4799,0.4889,0.4911,0.493,0.4999,0.5023,0.4723,0.4723,0.4723,0,0.3503,0.3665,0.3684,0.3802,0.3864,0.3848,0.3975,0.4034,0.4155,0.4198,0.4159,0.4381,0.4441,0.4619,0.4666,0.4712,0.4746,0.4697,0.4906,0.4925,0.4943,0.501,0.5036,0.4728,0.4727,0.4727,0.4726,0,0.3748,0.386,0.395,0.4066,0.4138,0.426,0.4297,0.4367,0.437,0.4404,0.4553,0.4624,0.4736,0.4778,0.4784,0.4956,0.4933,0.49,0.4832,0.4974,0.5036,0.5062,0.4735,0.4733,0.4732,0.4731,0,0,0.397,0.409,0.4123,0.4174,0.4272,0.4359,0.4478,0.4587,0.4647,0.4729,0.4829,0.4978,0.4946,0.501,0.5021,0.5101,0.5249,0.5057,0.506,0.5091,0.5442,0.5467,0.5496,0.5238,0.5243,0.5247,0.5434,0,0.4157,0.4369,0.4387,0.4578,0.468,0.4663,0.4767,0.4837,0.4872,0.4963,0.5,0.5105,0.5056,0.5093,0.5171,0.5215,0.532,0.5201,0.5332,0.5336,0.5312,0.5529,0.5558,0.5731,0.5459,0.5463,0.5466,0,0.4406,0.4493,0.4693,0.4774,0.4817,0.4911,0.501,0.5097,0.5175,0.5194,0.5262,0.5261,0.5382,0.5306,0.5473,0.5391,0.5445,0.5474,0.5481,0.5496,0.5412,0.5551,0.5787,0.5814,0.5505,0.5501,0.5499,0,0.4548,0.4715,0.4856,0.49,0.4997,0.5063,0.5106,0.518,0.5242,0.5328,0.5368,0.5467,0.5522,0.5597,0.5622,0.5565,0.5787,0.5714,0.5805,0.5805,0.5856,0.5853,0.6105,0.5887,0.5887,0.5887,0.5886,0,0.4757,0.488,0.4921,0.5008,0.5144,0.5161,0.5295,0.5335,0.5399,0.5493,0.5483,0.557,0.5597,0.5688,0.5707,0.5841,0.5866,0.5884,0.5888,0.5886,0.5884,0.5924,0.5913,0.5893,0.5892,0.5891,0.5889,0,0.4941,0.4973,0.5125,0.5202,0.5225,0.5322,0.5388,0.547,0.55,0.5618,0.5646,0.5694,0.58,0.5831,0.596,0.5972,0.6129,0.6122,0.6103,0.6104,0.6194,0.6185,0.6482,0.6522,0.6277,0.6279,0.6281,0,0.5073,0.5167,0.5253,0.5314,0.536,0.5459,0.5522,0.5541,0.5607,0.57,0.5771,0.5875,0.5961,0.6131,0.6176,0.6273,0.6269,0.6366,0.6284,0.6277,0.6271,0.6266,0.6274,0.6382,0.6385,0.6387,0.6389,0,0.5305,0.5314,0.5405,0.5501,0.5576,0.5652,0.5726,0.5776,0.5805,0.5879,0.5987,0.6052,0.6181,0.6285,0.6382,0.6425,0.6412,0.6413,0.644,0.644,0.6426,0.6435,0.6147,0.6408,0.6406,0.6404,0.6403,0.6403,0.5468,0.5549,0.5621,0.5722,0.5778,0.5846,0.5926,0.5964,0.6055,0.6161,0.6166,0.6283,0.6354,0.6483,0.6531,0.6621,0.6593,0.6631,0.6641,0.6651,0.6658,0.6409,0.6639,0.6638,0.6638,0.6637,0.6637,0,0.5699,0.5743,0.5835,0.5937,0.6015,0.5992,0.6071,0.6138,0.6241,0.6308,0.6391,0.6513,0.6611,0.6662,0.676,0.6822,0.6818,0.6848,0.6844,0.6854,0.6678,0.6646,0.6849,0.6849,0.6849,0.6849,0.6849,0.6849,0.5829,0.5965,0.5982,0.6145,0.6188,0.6302,0.6348,0.641,0.6463,0.66,0.6681,0.6713,0.6773,0.6874,0.6962,0.6974,0.7011,0.7044,0.7053,0.6888,0.6867,0.6846,0.6816,0.7052,0.7052,0.7221,0.7223,0.7224]}]]